Simultaneous Nadir Overpasses (SNOs) Predictions

Prediction of SNOs between NPP and TERRA Satellite Orbit:

Table of predicted SNOs for the next 14.0 days since TLE Epoch: 1/7/2012
Index Date (NPP) Time (NPP) Lat,Lon (NPP) SZA (NPP ) Date (TERRA) Time (TERRA) Lat,Lon (TERRA) SZA (TERRA ) Distance(km) Time Diff (sec)
1 01/08/2012 10:38:57 -68.88,-161.77 88.91 01/08/2012 10:40:08 -68.72,-160.99 89.09 35.70 71
2 01/08/2012 11:29:34 68.37, 6.22 90.56 01/08/2012 11:29:39 68.39, 6.24 90.58 3.09 5
3 01/08/2012 12:20:15 -68.25, 173.68 89.57 01/08/2012 12:19:10 -68.23, 173.68 89.59 2.52 65
4 01/11/2012 02:55:39 -68.45, -45.41 89.73 01/11/2012 02:56:41 -68.44, -45.45 89.74 1.76 62
5 01/11/2012 03:46:23 68.31, 122.07 90.13 01/11/2012 03:46:08 68.33, 122.05 90.15 2.19 15
6 01/11/2012 04:36:56 -67.76, -69.92 90.44 01/11/2012 04:35:45 -67.83, -70.90 90.35 41.84 71
7 01/13/2012 19:12:28 -68.44, 70.38 90.16 01/13/2012 19:13:08 -68.42, 70.41 90.18 2.46 40
8 01/13/2012 20:03:12 68.31,-122.15 89.71 01/13/2012 20:02:35 68.31,-122.09 89.70 2.50 37
9 01/16/2012 10:38:47 69.11, 17.95 90.07 01/16/2012 10:39:56 69.04, 19.44 89.96 59.45 69
10 01/16/2012 11:29:17 -68.39,-173.77 90.69 01/16/2012 11:29:36 -68.39,-173.75 90.70 0.79 19
11 01/16/2012 12:20:01 68.26, -6.30 89.18 01/16/2012 12:19:03 68.26, -6.25 89.18 2.00 58
12 01/19/2012 02:55:25 68.47, 134.59 88.89 01/19/2012 02:56:33 68.48, 134.63 88.89 1.96 68
13 01/19/2012 03:46:06 -68.34, -57.92
